FW3145 Weather Reports


Display with metric or nautical units.
time (UTC)temp
F
wind
direction
speed
MPH
gust
MPH
rain 1hr
in
rain 24hr
in
rain mn
in
humidity
%
barometer
mb
20260504020033 54 51 0.0 0.0 0.00 0.00 0.00 81 1017.9
20260504014539 53 30 0.0 0.0 0.00 0.00 0.00 81 1017.9
20260504013039 52 26 0.0 0.0 0.00 0.00 0.00 82 1017.9
20260504011530 52 26 0.0 0.0 0.00 0.00 0.00 81 1017.8
20260504010026 53 26 0.0 0.0 0.00 0.00 0.00 81 1017.8
20260504004526 53 53 0.0 0.0 0.00 0.00 0.00 81 1017.7
20260504003023 54 58 0.0 0.0 0.00 0.00 0.00 81 1017.7
20260504001521 54 26 0.0 0.0 0.00 0.00 0.00 81 1017.7
20260504000020 55 29 0.0 0.0 0.00 0.00 0.00 81 1017.9
20260503234519 55 36 0.0 0.0 0.00 0.00 0.00 81 1017.9
20260503233026 55 31 0.0 0.0 0.00 0.00 0.00 81 1018.0
20260503231517 55 36 0.0 0.0 0.00 0.00 0.00 81 1018.1
20260503230016 55 30 0.0 0.0 0.00 0.00 0.00 81 1018.1
20260503224515 54 38 0.0 0.0 0.00 0.00 0.00 81 1018.2
20260503223014 54 35 0.0 0.0 0.00 0.00 0.00 80 1018.2
20260503221517 55 32 0.0 0.0 0.00 0.00 0.00 80 1018.2
20260503220009 55 43 0.0 0.0 0.00 0.00 0.00 79 1018.1
20260503214511 55 56 0.0 0.0 0.00 0.00 0.00 78 1018.0
20260503213008 56 66 0.0 0.0 0.00 0.00 0.00 78 1017.9
20260503211508 57 101 0.0 0.0 0.00 0.00 0.00 77 1018.0
20260503210008 57 46 0.0 0.0 0.00 0.00 0.00 76 1018.1
20260503204508 58 61 0.0 0.0 0.00 0.00 0.00 76 1018.1
20260503203006 58 71 0.0 0.0 0.00 0.00 0.00 75 1018.0
20260503201507 59 50 0.0 0.0 0.00 0.00 0.00 74 1018.0
20260503200006 59 104 0.0 0.0 0.00 0.00 0.00 73 1017.7
20260503194505 59 61 0.0 0.0 0.00 0.00 0.00 74 1017.5
20260503193005 58 42 0.0 0.0 0.00 0.00 0.00 74 1017.4
20260503191504 59 360 0.0 0.0 0.00 0.00 0.00 71 1017.4
20260503190004 61 47 0.0 0.0 0.00 0.00 0.00 69 1017.3
20260503184505 61 105 0.0 0.0 0.00 0.00 0.00 69 1017.0
20260503183002 62 28 0.0 0.0 0.00 0.00 0.00 69 1016.7
20260503181503 62 60 0.0 0.0 0.00 0.00 0.00 69 1016.8
20260503180002 63 35 0.0 0.0 0.00 0.00 0.00 66 1016.7
20260503174502 64 26 0.0 0.0 0.00 0.00 0.00 64 1016.6
20260503173111 66 96 0.0 0.0 0.00 0.00 0.00 61 1016.4
20260503173001 66 71 0.0 0.0 0.00 0.00 0.00 60 1016.3
20260503171600 68 121 0.0 0.0 0.00 0.00 0.00 56 1016.2
20260503090105 65 161 0.0 0.0 0.00 0.00 0.00 45 1019.0
20260503081547 62 136 0.0 0.0 0.00 0.00 0.00 53 1019.3
20260503071536 56 164 0.0 0.0 0.00 0.00 0.00 65 1019.8
20260503054509 50 5 0.0 0.0 0.00 0.00 0.00 75 1019.8
20260503053005 47 5 0.0 0.0 0.00 0.00 0.00 78 1019.7
20260503051502 47 5 0.0 0.0 0.00 0.00 0.00 81 1019.6
20260503050001 44 345 0.0 0.0 0.00 0.00 0.00 81 1019.6
20260503044559 42 345 0.0 0.0 0.00 0.00 0.00 82 1019.5
20260503043056 41 345 0.0 0.0 0.00 0.00 0.00 82 1019.4
20260503041555 41 346 0.0 0.0 0.00 0.00 0.00 82 1019.3
20260503040104 41 346 0.0 0.0 0.00 0.00 0.00 82 1019.3
20260503034550 41 346 0.0 0.0 0.00 0.00 0.00 82 1019.3
20260503033050 41 346 0.0 0.0 0.00 0.00 0.00 82 1019.1
20260503031601 41 345 0.0 0.0 0.00 0.00 0.00 81 1019.1
20260503030050 41 346 0.0 0.0 0.00 0.00 0.00 81 1019.1
20260503024547 42 346 0.0 0.0 0.00 0.00 0.00 81 1019.1
20260503023049 42 346 0.0 0.0 0.00 0.00 0.00 81 1019.2
20260503021544 42 346 0.0 0.0 0.00 0.00 0.00 80 1019.1